Lid_Strength_Index
-1 0 2 5 7 7 8 7 5 6 6 5 4 4 5 5 7 11 1 0 -0 -0 -1 -1 -1 -1 -1 -1 -1 -1 -1 -1 -1 -1 -1 -1 -1 -1 -1 -1 -1 -1 -1 -1 -1 -1 -1 -1 -1
1 3 4 5 8 9 8 6 6 5 5 5 4 4 5 6 3 3 2 0 -0 -0 -1 -1 -1 -1 -1 -1 -1 -1 -1 -1 -1 -1 -1 -1 -1 -1 -1 -1 -1 -1 -1 -1 -1 -1 -1 -1 -1
1 3 5 6 7 9 8 6 5 4 5 5 5 4 4 5 3 2 1 -0 -0 -0 -1 -1 -1 -1 -1 -1 -1 -1 -1 -1 -1 -1 -1 -1 -1 -1 -1 -1 -1 -1 -1 -1 -1 -1 -1 -1 -1
4 5 5 7 8 6 6 5 4 4 4 5 5 5 3 2 2 1 0 -0 0 -0 -1 -1 -1 -1 -1 -1 -1 -1 -1 -1 -1 -1 -1 -1 -1 -1 -1 -1 -1 -1 -1 -1 -1 -1 -1 -1 -1
5 6 8 7 7 6 5 4 4 5 4 5 5 5 5 2 1 0 0 0 0 -0 -1 -1 -1 -1 -1 -1 -1 -1 -1 -1 -1 -1 -1 -1 -1 -1 -1 -1 -1 -1 -1 -1 -1 -1 -1 -1 -1
7 6 9 9 7 5 5 4 4 4 4 4 5 4 4 2 1 1 0 0 -0 -0 -1 -1 -1 -1 -1 -1 -1 -1 -1 -1 -1 -1 -1 -1 -1 -1 -1 -1 -1 -1 -1 -1 -1 -1 -1 -1 -1
7 7 9 8 7 6 5 3 4 4 4 5 4 5 4 3 1 1 0 -0 -0 -0 -0 -1 -1 -1 -1 -1 -1 -1 -1 -1 -1 -1 -1 -1 -1 -1 -1 -1 -1 -1 -1 -1 -1 -1 -1 -1 -1
6 7 8 7 8 7 4 5 4 4 4 3 3 5 5 3 1 1 0 0 0 -0 -0 -0 -1 -1 -1 -1 -1 -1 -1 -1 -1 -1 -1 -1 -1 -1 -1 -1 -1 -1 -1 -1 -1 -1 -1 -2 -2
6 9 9 8 7 6 4 6 4 5 5 4 3 3 3 2 1 1 1 1 1 0 -0 -0 -0 -1 -1 -1 -1 -1 -1 -1 -1 -1 -1 -1 -1 -1 -1 -2 -2 -1 -1 -1 -1 -1 -2 -2 -2
7 10 9 6 5 5 4 5 6 7 7 5 5 3 2 2 2 2 2 2 2 1 1 -0 -0 -0 -1 -1 -1 -1 -1 -1 -1 -1 -1 -1 -2 -2 -1 -2 -2 -1 -1 -1 -1 -1 -1 -1 -1
8 10 8 8 7 5 5 5 5 6 7 6 6 3 3 2 2 3 2 2 2 1 1 0 -0 -1 -1 -0 -1 -1 -1 -1 -1 -2 -2 -2 -2 -2 -1 -1 -1 -1 -1 -1 -1 -1 -1 -1 -1
9 8 8 7 7 7 7 6 6 6 6 5 5 4 5 3 3 2 2 2 1 1 1 0 -0 -0 -1 -1 -0 -1 -1 -1 -1 -1 -2 -2 -1 -1 -1 -1 -1 -1 -1 -1 -2 -1 -2 -2 -1
6 6 6 7 7 7 7 8 7 6 6 6 6 5 5 5 3 2 2 1 1 1 1 0 -0 -0 -0 -1 -0 -0 -1 -1 -1 -1 -2 -1 -1 -1 -1 -1 -1 -1 -1 -1 -1 -1 -1 -1 -1
4 5 6 6 6 7 9 8 7 7 6 6 6 6 6 5 5 3 2 2 1 1 1 0 0 -0 -0 -0 -1 -0 -1 -1 -1 -1 -1 -2 -1 -1 -1 -1 -1 -1 -1 -1 -1 -1 -1 -1 -1
5 6 6 6 6 7 6 9 10 7 6 7 7 6 6 6 5 4 2 2 1 1 0 0 0 -0 -0 -0 -0 -0 -1 -1 -0 -1 -2 -1 -2 -1 -1 -1 -1 -1 -2 -2 -1 -1 -1 -1 -1
7 7 9 6 6 6 6 11 9 7 7 7 7 7 7 6 6 4 1 1 1 1 1 0 0 0 -0 -0 -0 -0 -1 -1 -1 -1 -1 -1 -1 -2 -1 -0 -0 -1 -1 -1 -0 -0 0 -0 -0
7 10 9 8 5 6 7 9 7 6 7 8 8 7 7 7 6 4 3 1 1 1 1 1 0 0 0 -0 -0 -0 -1 -0 -0 -1 -1 -1 -1 -1 -1 -0 -1 -1 -1 -0 0 0 1 1 1
10 10 9 9 6 6 7 8 7 6 5 6 7 7 7 7 6 5 3 3 1 1 1 1 1 0 0 0 -0 -0 -0 -0 -0 -0 -0 -1 -1 -1 -0 -0 -1 -1 -0 -0 0 0 -0 0 1
7 8 8 7 6 7 7 7 6 6 6 6 6 7 5 5 5 5 4 3 2 1 1 1 1 1 1 1 1 1 1 1 0 -0 -1 -1 -1 -1 -1 -0 -1 -0 -0 -0 -0 -0 0 1 0
8 9 9 7 6 7 7 7 6 5 5 5 6 6 5 4 4 4 3 2 2 1 1 0 1 1 1 1 1 0 1 0 0 0 -0 -1 -1 -1 -1 -0 -0 -1 0 -0 -0 0 1 1 1
8 9 9 9 7 6 7 9 7 6 5 5 4 4 4 4 4 3 3 1 2 1 1 1 1 1 1 0 0 0 0 0 1 1 0 -0 -0 -0 -0 -1 -0 -1 -1 0 -0 0 1 2 1
10 7 7 8 9 11 7 13 8 7 6 6 5 5 4 4 3 3 2 2 1 1 1 1 1 1 1 0 1 1 2 2 1 1 1 0 -0 -0 -0 -1 -0 -0 -0 -0 -0 -0 0 1 2
8 6 7 8 9 9 9 11 9 7 7 7 6 5 4 4 3 3 3 2 1 1 1 1 1 1 0 0 0 1 1 1 1 1 1 1 -0 -1 -0 -0 -0 0 -0 -0 -0 0 0 0 1
6 7 8 8 9 13 10 10 10 8 7 6 5 4 4 4 3 2 2 1 1 1 1 1 1 1 1 1 1 1 1 1 1 1 2 1 1 0 -0 -0 -0 -0 -0 -0 -0 -0 0 1 1
7 10 16 16 14 14 9 11 9 7 6 5 5 4 4 3 3 3 2 2 2 1 1 1 1 2 1 1 1 1 1 1 1 1 1 1 1 1 0 -0 -0 -0 -0 -0 -0 -0 -0 0 1
9 10 14 18 16 13 9 12 10 6 5 4 4 4 3 3 3 3 2 2 2 1 1 1 1 2 2 1 1 1 1 1 1 1 1 1 1 1 -0 -0 -0 -0 -0 -0 -0 0 0 0 1
10 11 8 11 11 14 11 9 7 6 6 5 5 4 4 3 3 3 2 2 1 1 1 1 2 2 2 1 1 1 1 1 1 0 0 1 0 0 -0 -0 -0 -0 -0 -0 -0 0 0 0 0
9 8 13 11 19 20 12 11 11 8 7 6 5 5 5 4 3 3 2 2 1 1 1 1 2 2 2 1 1 1 1 1 0 1 1 0 -0 -0 0 0 -0 -0 -0 -0 -0 0 0 0 0
10 12 12 10 11 15 15 12 7 7 6 6 5 6 6 5 5 4 3 2 2 2 2 2 2 2 2 2 1 1 1 1 0 0 0 0 -0 -0 -0 -0 -0 -0 -0 -0 -0 -0 -0 1 0
8 10 12 15 16 11 13 16 7 6 6 6 7 7 6 6 5 5 4 4 4 3 3 3 2 2 2 1 1 1 1 0 0 0 0 0 -0 -1 -0 -0 -0 -0 -0 -1 -0 0 -0 0 1